Regional Weather Roundup
Issued by NWS Little Rock, AR

Home | Current Version | Previous Version | Graphics & Text | Print | Product List | Glossary On
Versions: 1 2 3 4 5 6 7 8 9 10 11 12 13 14 15 16 17 18 19 20 21 22 23 24 25 26 27 28 29 30 31 32
000
ASUS44 KLZK 200012
RWRLZK

WEATHER ROUNDUP FOR ARKANSAS
NATIONAL WEATHER SERVICE LITTLE ROCK AR
700 PM CDT SAT AUG 19 2017

NOTE: "FAIR" INDICATES FEW OR NO CLOUDS BELOW 12,000 FEET WITH NO
SIGNIFICANT WEATHER AND/OR OBSTRUCTIONS TO VISIBILITY.

ARZ001-003-010-029-200100-
NORTHWEST ARKANSAS

CITY           SKY/WX    TMP DP  RH WIND       PRES   REMARKS
FAYETTEVILLE   SUNNY     88  75  65 SW3       29.94F HX  97
6HR MIN TEMP:  87; 6HR MAX TEMP:  92;

FORT SMITH     SUNNY     94  73  50 W5        29.89F HX 103
6HR MIN TEMP:  92; 6HR MAX TEMP:  97;

HARRISON       SUNNY     89  72  56 CALM      29.96S HX  96
6HR MIN TEMP:  89; 6HR MAX TEMP:  92;

BENTONVILLE    SUNNY     90  72  55 SW3       29.97S HX  96
6HR MIN TEMP:  88; 6HR MAX TEMP:  91;

ROGERS         SUNNY     88  75  65 SE5       29.97S HX  97
6HR MIN TEMP:  86; 6HR MAX TEMP:  93;

SILOAM SPGS    SUNNY     90  72  55 S5        29.94S HX  96
6HR MIN TEMP:  90; 6HR MAX TEMP:  93;

HIGHFILL       SUNNY     88  74  63 S5        29.96S HX  96
6HR MIN TEMP:  88; 6HR MAX TEMP:  92;

SPRINGDALE     MOSUNNY   90  72  55 CALM      29.97S HX  96
$$

ARZ004-005-016-200100-
NORTH CENTRAL ARKANSAS

CITY           SKY/WX    TMP DP  RH WIND       PRES   REMARKS
BATESVILLE     MOCLDY    73  70  88 S9        29.95S THUNDER
6HR MIN TEMP:  73; 6HR MAX TEMP:  95; 6HR PCP:  0.49;

FLIPPIN        SUNNY     90  73  58 E3        29.90F HX  98
6HR MIN TEMP:  90; 6HR MAX TEMP:  93;

MTN HOME       CLEAR     88  76  67 E3        29.92F HX  99
6HR MIN TEMP:  88; 6HR MAX TEMP:  93;

$$

ARZ040-041-200100-
WEST CENTRAL ARKANSAS

CITY           SKY/WX    TMP DP  RH WIND       PRES   REMARKS
MENA           SUNNY     93  79  62 CALM      29.95S HX 110
MOUNT IDA      MOSUNNY   89  76  65 CALM      29.92R HX 100
6HR MIN TEMP:  89; 6HR MAX TEMP:  96;

$$

ARZ009-017-025-026-028-200100-
NORTHEAST ARKANSAS

CITY           SKY/WX    TMP DP  RH WIND       PRES   REMARKS
JONESBORO      CLOUDY    87  76  69 SE3       29.92R HX  97
6HR MIN TEMP:  86; 6HR MAX TEMP:  93;

NEWPORT        LGT RAIN  84  77  79 SE7       29.92S HX  94
6HR MIN TEMP:  84; 6HR MAX TEMP:  93; 6HR PCP: TRACE;

WALNUT RIDGE   CLOUDY    88  75  66 CALM      29.90F HX  97
6HR MIN TEMP:  88; 6HR MAX TEMP:  91;

BLYTHEVILLE    CLOUDY    86  77  74 S5        29.93R HX  97
6HR MIN TEMP:  86; 6HR MAX TEMP:  93;

$$

ARZ022-023-033-042-044-200100-
CENTRAL ARKANSAS

CITY           SKY/WX    TMP DP  RH WIND       PRES   REMARKS
LITTLE ROCK    PTCLDY    90  78  68 SE6       29.91R HX 104
6HR MIN TEMP:  90; 6HR MAX TEMP:  93;

N LITTLE ROCK    N/A     91  76  62 SE5       29.92R HX 103
6HR MIN TEMP:  89; 6HR MAX TEMP:  94;

JACKSONVILLE   CLEAR     92  78  63 E3        29.91R HX 107
6HR MIN TEMP:  90; 6HR MAX TEMP:  94; 6HR PCP: TRACE;

CONWAY           N/A     91  75  59 CALM      29.89R HX 102
SEARCY         CLOUDY    92  80  68 MISG      29.93R HX 110
6HR MIN TEMP:  89; 6HR MAX TEMP:  95;

HOT SPRINGS    SUNNY     93  76  57 S5        29.92R HX 105
6HR MIN TEMP:  93; 6HR MAX TEMP:  97;

RUSSELLVILLE   SUNNY     90  77  65 CALM      29.90S HX 103
6HR MIN TEMP:  89; 6HR MAX TEMP:  93;

CLINTON        FAIR      86  81  84 CALM      29.92R HX 102
$$

ARZ036-200100-
EAST ARKANSAS

CITY           SKY/WX    TMP DP  RH WIND       PRES   REMARKS
WEST MEMPHIS   CLEAR     87  79  76 CALM      29.91R HX 101
6HR MIN TEMP:  87; 6HR MAX TEMP:  93;

$$

ARZ050-053-066-070-073-200100-
SOUTHWEST ARKANSAS

CITY           SKY/WX    TMP DP  RH WIND       PRES   REMARKS
ARKADELPHIA    FAIR      93  80  65 CALM      29.91S HX 112
6HR MIN TEMP:  93; 6HR MAX TEMP:  96;

CAMDEN         CLEAR     93  79  62 CALM      29.91S HX 110
TEXARKANA      PTSUNNY   88  78  72 SE3       29.93R HX 101
6HR MIN TEMP:  88; 6HR MAX TEMP:  95;

EL DORADO      CLEAR     93  74  53 CALM      29.93S HX 103
6HR MIN TEMP:  92; 6HR MAX TEMP:  96;

DE QUEEN       SUNNY     92  80  68 S3        29.89S HX 110
6HR MIN TEMP:  92; 6HR MAX TEMP:  95;

$$

ARZ056-057-069-200100-
SOUTHEAST ARKANSAS

CITY           SKY/WX    TMP DP  RH WIND       PRES   REMARKS
PINE BLUFF     CLEAR     90  76  63 S6        29.92R HX 101
6HR MIN TEMP:  90; 6HR MAX TEMP:  95;

MONTICELLO     CLEAR     92  78  63 CALM      29.93R HX 107
6HR MIN TEMP:  91; 6HR MAX TEMP:  95;


$$






USA.gov is the U.S. government's official web portal to all federal, state and local government web resources and services.